Regional Weather Roundup
Issued by NWS

Home | Current Version | Previous Version | Graphics & Text | Print | Product List | Glossary On
Versions: 1 2 3 4 5 6 7 8 9 10 11 12 13 14 15 16 17 18 19 20 21 22 23 24 25 26 27 28 29 30 31 32 33 34 35 36 37 38 39 40 41 42 43 44 45 46 47 48 49 50
000
ASUS43 KTOP 180808
RWRKS

WEATHER ROUNDUP FOR KANSAS
NATIONAL WEATHER SERVICE GOODLAND KS
200 AM CST SAT NOV 18 2017

NOTE:  "FAIR" INDICATES FEW OR NO CLOUDS BELOW 12,000 FEET WITH NO
SIGNIFICANT WEATHER AND/OR OBSTRUCTIONS TO VISIBILITY.

KSZ001>006-013>018-027>032-041>047-180900-
NORTHWEST KANSAS

CITY           SKY/WX    TMP DP  RH WIND       PRES   REMARKS
GOODLAND       CLOUDY    41  37  86 NW32G43   29.81R
HAYS           CLOUDY    43  35  73 N16       29.69R
HILL CITY      LGT RAIN  43  41  93 NW10      29.74R
RUSSELL        PTCLDY    43  38  82 NW22      29.68R
$$

KSZ061>065-074>080-084>089-180900-
SOUTHWEST KANSAS

CITY           SKY/WX    TMP DP  RH WIND       PRES   REMARKS
DODGE CITY     CLEAR     42  31  64 N17G31    29.71R
ELKHART        PTCLDY    45  36  69 N20G25    29.82R
GARDEN CITY    MOCLDY    43  33  68 N21G33    29.78R
GREAT BEND     CLOUDY    43  35  73 NW21G29   29.66R
LIBERAL        CLEAR     44  32  62 N23G30    29.77R
PRATT          CLOUDY    47  35  63 N22G28    29.62R
$$

KSZ066>073-081>083-090>101-180900-
SOUTHEAST KANSAS

CITY           SKY/WX    TMP DP  RH WIND       PRES   REMARKS
CHANUTE        PTCLDY    68  60  75 SW13      29.36F
COFFEYVILLE    PTCLDY    70  62  76 S18G25    29.39F
HUTCHINSON     CLOUDY    49  41  74 N22G29    29.53R
MEDICINE LODGE   N/A     48  37  65 NW14G23   29.57R
NEWTON         CLOUDY    49  42  77 N22G32    29.50R
PARSONS        MOCLDY    71  61  70 S14G22    29.39F
WICHITA INTL   MOCLDY    50  42  74 N22G33    29.50R
WICHITA JABRA  CLOUDY    51  46  83 NW17G26   29.49R
WICHITA MCCONL CLOUDY    53  45  75 N22G30    29.48R
WINFIELD       PTCLDY    62  41  46 NW22      29.47R
$$

KSZ007>012-019>026-033>040-048>060-102>105-180900-
NORTHEAST KANSAS

CITY           SKY/WX    TMP DP  RH WIND       PRES   REMARKS
CONCORDIA      CLOUDY    44  39  82 N17G28    29.61R
EMPORIA        MOCLDY    53  51  93 NW18G26   29.39R
LAWRENCE       PTCLDY    57  56  96 N10       29.38S FOG
MANHATTAN      CLOUDY    53  45  74 N15G29    29.47R
MARYSVILLE     CLOUDY    46  43  87 N23       29.55R
OLATHE IND     CLOUDY    58  57  97 N7        29.36F
OLATHE EXE     CLOUDY    57  57 100 N8        29.36F FOG
SALINA         CLOUDY    50  41  71 NW21      29.55R
TOPEKA BILLARD CLOUDY    56  56 100 N16G24    29.39R FOG
TOPEKA FORBES  CLOUDY    56  55  97 N14       29.39R
$$




USA.gov is the U.S. government's official web portal to all federal, state and local government web resources and services.